Location: Pagao
(9.8761°N, 126.0669°E)
Time: 19:11:39
(UTC+00:00)

Daily predictions for brighter satellites

Satellite Brightness Start Highest point End
(mag) Time Altitude Azimuth Time Altitude Azimuth Time Altitude Azimuth
BLOCK DM-SL R/B 4.5 18:10:01 49° SSE 18:10:01 49° SSE 18:58:10 10° E
BLOCK DM-SL R/B 4.5 18:10:00 49° SSE 18:10:00 49° SSE 18:58:10 10° E
Centaur D AC-29 4.3 18:51:43 10° SE 18:51:43 10° SE 18:51:44 10° SE
CZ-3B R/B 3.5 18:54:55 72° SW 18:55:17 72° SSW 19:05:57 10° SE
CZ-3B Rocket 4.1 19:10:30 34° SSW 19:13:46 52° SE 20:06:48 10° ENE
CZ-3B Rocket 4.1 19:10:30 34° SSW 19:13:46 52° SE 20:06:47 10° ENE
CZ-2C R/B 3.9 19:32:35 27° S 19:32:35 27° S 19:34:50 10° S
Meteosat 1 Rocket2 4.5 19:39:32 35° NE 19:39:32 35° NE 19:44:20 10° E
Cosmos 1513 Rocket 4.4 19:34:09 10° S 19:40:00 70° SW 19:40:00 70° SW
Meteor 1-31 Rocket 4.3 19:44:37 32° SSE 19:44:37 32° SSE 19:46:57 10° S
SL-16 R/B 4.1 19:39:16 11° NNE 19:43:37 26° ENE 19:48:15 10° SE
Cosmos 1452 Rocket 4.4 19:39:20 10° S 19:44:22 48° ESE 19:49:25 10° NNE
Cosmos 2251 Rocket 3.5 19:46:25 70° SSW 19:46:25 70° SSW 19:51:04 10° S
Cosmos 1933 Rocket 4.1 19:42:00 10° S 19:45:52 56° ESE 19:45:52 56° ESE
Cosmos 2237 Rocket 2.1 19:54:07 64° WSW 19:54:07 64° WSW 19:59:34 10° S
Timation 1 Rocket 4.2 19:48:15 10° SSW 19:54:12 87° ESE 20:00:09 10° NNE
Lacrosse 5 3.6 19:54:25 18° NNE 19:56:57 26° ENE 20:01:08 10° ESE
SL-16 Debris 4.1 20:01:18 45° ENE 20:01:18 45° ENE 20:04:52 10° ENE
Meteor 1-10 Rocket 4.3 19:57:50 29° N 20:01:03 88° E 20:07:00 10° S
Meteor 2-11 Rocket 4.3 19:55:19 10° SSW 20:01:19 66° W 20:05:45 19° N
GPS 2-17 Rocket1 3.6 20:01:54 45° NNE 20:01:58 45° NNE 20:06:29 10° E
deb Centaur AC-2 3.9 20:02:12 82° WNW 20:02:19 84° NNW 20:06:39 10° ENE
Ariane H10 3.8 20:01:34 34° WSW 20:03:45 54° S 20:06:41 10° ESE
PSLV R/B 4.3 19:59:54 10° SSE 20:04:02 65° ENE 20:05:32 37° N
SEDSat Delta rocket 2.9 20:05:32 66° SW 20:05:38 67° SSW 20:09:44 10° SE
Cosmos 2263 Rocket 2.2 20:02:30 10° SSW 20:07:57 54° WNW 20:13:24 10° N
Hubble Space Telescope 1.0 20:08:34 46° SSW 20:09:34 65° SSE 20:13:40 10° ENE
ATLAS 2AS CENTAUR RB 2.2 20:08:20 42° SW 20:09:34 66° SSE 20:22:44 10° E
Ariane H10-3 4.0 20:08:09 18° SW 20:10:29 29° SSE 20:21:18 10° ESE
Meteor 1-27 Rocket 4.0 20:13:28 10° N 20:19:20 74° E 20:25:06 10° S
Ariane H10-3 4.4 19:23:19 10° W 20:20:06 65° S 20:25:20 10° ESE
Cosmos 1634 Rocket 4.4 20:14:48 10° S 20:20:58 63° E 20:27:05 10° NNE
Centaur D-1AR AC-39 3.5 20:20:20 30° WNW 20:23:48 75° NNE 21:05:07 10° ESE
Cosmos 2034 Rocket 4.4 20:18:27 10° SSW 20:24:13 40° W 20:30:04 10° NNW
Cosmos 1340 4.4 20:21:57 10° SSE 20:25:21 33° E 20:28:45 10° NNE
Delta 2 Rocket 4.0 20:26:23 29° WNW 20:29:53 87° NNE 20:37:08 10° ESE
CZ-4B DEB 4.4 20:26:02 10° NNE 20:31:33 74° ESE 20:37:05 10° S
COBE Rocket 4.1 20:27:45 10° SSE 20:32:46 76° E 20:37:36 10° N
GPS 2-15 Rocket1 4.5 20:32:35 22° NNW 20:34:06 26° N 20:38:12 10° NE
SJ-12 3.8 20:35:42 10° N 20:39:46 80° WNW 20:43:49 10° SSW
Cosmos 1862 Rocket 3.7 20:36:53 12° NNW 20:40:53 55° W 20:45:16 10° S
Cosmos 1844 Rocket 4.0 20:35:42 10° S 20:40:57 42° ESE 20:46:11 10° NE
Cosmos 1869 Rocket 3.4 20:37:40 10° S 20:41:59 81° W 20:46:17 10° N
Cosmos 1602 3.7 20:38:48 10° S 20:42:37 85° E 20:46:26 10° N
STARLINK-68 4.5 20:40:10 13° NNW 20:43:31 44° NE 20:47:21 10° SE
MOS 1-B 4.3 20:37:58 10° N 20:43:41 69° WNW 20:49:24 10° SSW
STARLINK-58 4.5 20:41:36 12° NNW 20:45:05 44° NE 20:48:55 10° SE
Cosmos 1110 Rocket 4.5 20:40:20 10° S 20:45:30 64° ESE 20:50:37 10° NNE
STARLINK-62 4.3 20:43:18 12° NNW 20:46:48 49° NE 20:50:41 10° SE
Okean O Rocket 2.1 20:42:41 10° NNE 20:47:03 63° ESE 20:51:26 10° S
STARLINK-63 4.3 20:44:45 12° NNW 20:48:21 48° NE 20:52:14 10° SE
GPS 2-04 Rocket1 4.5 20:48:36 14° NNW 20:48:38 14° NNW 20:50:51 10° N
ARIANE DEB (SPELDA) 3.8 20:47:50 11° WSW 20:50:13 36° SSE 20:56:56 10° ESE
FENGYUN 3A 3.6 20:45:39 10° N 20:51:01 81° WNW 20:56:23 10° SSW
Cosmos 371 Rocket 3.5 20:46:15 10° S 20:51:02 73° ESE 20:55:50 10° NNE
STARLINK-72 4.3 20:47:48 11° NNW 20:51:35 50° NE 20:55:29 10° SE
CZ-3B R/B 4.3 20:43:24 12° W 20:52:14 27° SW 20:59:27 10° SSE
Cosmos 2242 Rocket 3.5 20:49:13 10° N 20:53:39 69° W 20:58:04 10° S
STARLINK-59 4.0 20:51:08 11° NNW 20:54:58 60° NE 20:58:56 10° SE
Cosmos 44 4.1 20:51:08 10° SW 20:55:28 29° WNW 20:59:37 10° N
Ariane H10 4.2 20:52:41 10° SW 20:55:58 28° SSE 21:05:48 10° ESE
STARLINK-55 3.8 20:54:17 10° NNW 20:58:16 66° NE 21:02:14 10° SE
STARLINK-28 3.7 20:55:56 10° NNW 20:59:56 72° NE 21:03:56 10° SE
CZ-4B R/B 3.3 20:54:20 10° NNE 20:59:59 89° E 21:05:40 10° SSW
Cosmos 1190 Rocket 4.0 20:54:52 10° NNW 21:00:06 83° W 21:05:23 10° S
Cosmos 1241 Rocket 4.4 20:54:17 10° NNW 21:00:29 79° WSW 21:06:45 10° SSE
SKYMED 2 4.3 20:58:01 10° SSE 21:02:15 56° ENE 21:06:30 10° N
STARLINK-53 3.6 20:59:13 10° NNW 21:03:13 79° NE 21:07:14 10° SE
STARLINK-54 3.6 21:00:52 10° NNW 21:04:53 85° ENE 21:08:53 10° SE
Meteor 1-14 Rocket 4.5 20:59:28 10° SSW 21:05:06 51° W 21:10:50 10° N
Cosmos 1092 Rocket 4.0 21:01:21 10° N 21:07:29 84° W 21:13:37 10° S
STARLINK-34 3.5 21:04:11 10° NW 21:08:12 86° SW 21:12:13 10° SSE
METEOR-M 4.4 21:04:17 10° N 21:09:22 46° WNW 21:14:29 10° SSW
STARLINK-61 4.3 21:07:08 11° NW 21:10:45 37° WSW 21:14:30 10° SSE
Delta 202 4.1 21:05:49 10° W 21:10:50 46° N 21:16:31 10° ENE
STARLINK-81 3.5 21:07:18 10° NW 21:11:18 90° NE 21:15:18 10° SE
STARLINK-24 3.5 21:09:07 10° NW 21:13:07 75° SW 21:17:07 10° SSE
STARLINK-77 3.5 21:10:37 10° NW 21:14:38 81° SW 21:18:38 10° SSE
Cosmos 1484 Rocket 4.5 21:12:53 10° NW 21:14:50 14° WNW 21:16:47 10° WSW
STARLINK-25 3.5 21:12:16 10° NW 21:16:17 77° SW 21:20:17 10° SSE
STARLINK-71 3.7 21:14:09 10° NW 21:18:06 61° SW 21:22:03 10° SSE
ALOS 3.0 21:15:08 10° NNW 21:19:12 30° WNW 21:23:16 10° SW
STARLINK-79 3.6 21:15:37 10° NW 21:19:35 69° WSW 21:23:35 10° SSE
ATLAS 2A CENTAUR R/B 4.5 21:27:28 10° WSW 21:57:31 54° NW 22:03:06 10° NE
